TJS-5

Last updated on Sat Dec 13 2025 00:02:50 GMT+0000 (Coordinated Universal Time)

1 44978U 20002A 25346.08368605 -.00000333 00000+0 00000+0 0 9990 2 44978 0.3466 88.9937 0005795 114.8373 14.8396 1.00273530 21825
UTC large
Height (km)
Speed (km/s)
/
Latitude / Longitude
Inclination (degrees)
Orbital Period (minutes)
Azimuth
Elevation
Range (km)
Doppler Factor

Next 0 passes for location: London (51.5072 / 0.1276)

Sorry there are no passes over London.